Location: Ca�n Batista
(41.4099°N, 1.7752°E)
Time: 13:25:54
(UTC+00:00)

ERS-2 - Pass Details

Date: 03 March 2021
Orbit: 492 x 496 km, 98.6° (Epoch: 21 April)

Event Time Altitude Azimuth Distance (km) Brightness Sun altitude
Rises 18:23:28 0° 19° (NNE) 2,592 5.5 -7.8°
Reaches altitude 10° 18:25:36 10° 25° (NNE) 1,705 4.6 -8.2°
Maximum altitude 18:29:09 48° 101° (E) 658 2.3 -8.9°
Drops below altitude 10° 18:32:41 10° 177° (S) 1,692 4.8 -9.5°
Sets 18:34:48 0° 183° (S) 2,570 5.8 -9.9°
